Welcome to Northern Hawkes Bay. New Zealand.
PWS Header
      nz Flag



Hit Counter


W3C Valid W3C Valid logo


    Wairoa

Select any of the Stations below to visit their websites.










Historic Data from Weather Underground
Select the location of interest below. Wairoa is the default. Please have patience, this Data is slow to load in.
Northern Hawkes Bay Historical Data
Daily Summary for June 8, 2017 Units:  English    Metric   Both
« Previous Day
Next Day »
Daily Weekly Monthly Yearly Custom
  High: Low: Average:
Temperature: 56.1 °F 49.5 °F 52.5 °F
Dew Point: 48.6 °F 40.5 °F 43.3 °F
Humidity: 96% 62% 71%
Wind Speed: 22.8mph 5.4mph 12.1mph
Wind Gust: 30.4mph - -
Wind- - SW
Pressure: 30.2 in 30.1 in -
Precipitation: 0.47 in    
Historical Graphs
 
 
Tabular Data for June 8, 2017
Time Temperature Dew Point Pressure Wind Wind Speed Wind Gust Humidity Rainfall Rate (Hourly) solar
00:02 52.9 °F 42.3 °F 30.1 in WSW 13 mph 21.3 mph 67% 0 in 0 W/m2
00:07 52.9 °F 42.6 °F 30.1 in WSW 17.4 mph 23.5 mph 68% 0 in 0 W/m2
00:12 52.9 °F 42.3 °F 30.1 in SW 13.6 mph 27.3 mph 67% 0 in 0 W/m2
00:17 52.9 °F 42.3 °F 30.1 in SW 15.9 mph 27.3 mph 67% 0 in 0 W/m2
00:22 52.7 °F 42.4 °F 30.1 in SW 12.1 mph 25.9 mph 68% 0 in 0 W/m2
00:27 52.7 °F 42.8 °F 30.1 in WSW 15.2 mph 23.5 mph 69% 0 in 0 W/m2
00:32 52.7 °F 42.4 °F 30.1 in WSW 15.2 mph 27.3 mph 68% 0 in 0 W/m2
00:37 52.7 °F 42.8 °F 30.1 in WSW 10.7 mph 27.3 mph 69% 0 in 0 W/m2
00:42 52.5 °F 42.6 °F 30.1 in WSW 13 mph 22.1 mph 69% 0 in 0 W/m2
00:47 52.5 °F 42.3 °F 30.1 in West 13.6 mph 23.5 mph 68% 0 in 0 W/m2
00:52 52.7 °F 42.4 °F 30.1 in West 11.4 mph 23.5 mph 68% 0 in 0 W/m2
00:57 52.7 °F 42.8 °F 30.1 in WSW 11.4 mph 22.8 mph 69% 0 in 0 W/m2
01:02 52.7 °F 42.1 °F 30.1 in SW 15.2 mph 24.4 mph 67% 0 in 0 W/m2
01:07 52.7 °F 42.4 °F 30.1 in SW 10.7 mph 24.4 mph 68% 0 in 0 W/m2
01:10 52.7 °F 42.8 °F 30.1 in SW 11.4 mph 24.4 mph 69% 0 in 0 W/m2
01:15 52.7 °F 42.1 °F 30.1 in WSW 19 mph 23.5 mph 67% 0 in 0 W/m2
01:20 52.7 °F 42.4 °F 30.1 in WSW 14.5 mph 25.1 mph 68% 0 in 0 W/m2
01:25 52.7 °F 42.4 °F 30.1 in WSW 15.9 mph 25.1 mph 68% 0 in 0 W/m2
01:30 52.5 °F 42.3 °F 30.1 in SW 15.2 mph 24.4 mph 68% 0 in 0 W/m2
01:36 52.5 °F 42.6 °F 30.1 in SW 12.1 mph 22.1 mph 69% 0 in 0 W/m2
01:41 52.5 °F 42.3 °F 30.1 in WSW 10.7 mph 22.8 mph 68% 0 in 0 W/m2
01:46 52.3 °F 42.1 °F 30.1 in SW 15.9 mph 28.9 mph 68% 0 in 0 W/m2
01:51 52.2 °F 42.3 °F 30.1 in SW 12.1 mph 28.9 mph 69% 0 in 0 W/m2
01:56 52.2 °F 42.3 °F 30.1 in WSW 17.4 mph 26.6 mph 69% 0 in 0 W/m2
02:00 52.2 °F 42.6 °F 30.1 in WSW 13 mph 25.1 mph 70% 0 in 0 W/m2
02:06 52 °F 42.4 °F 30.1 in SW 11.4 mph 22.8 mph 70% 0 in 0 W/m2
02:11 51.8 °F 42.3 °F 30.1 in West 13 mph 22.8 mph 70% 0 in 0 W/m2
02:16 51.6 °F 43 °F 30.1 in West 9.8 mph 27.3 mph 72% 0 in 0 W/m2
02:21 51.6 °F 43.3 °F 30.1 in WSW 14.5 mph 27.3 mph 73% 0 in 0 W/m2
02:26 51.6 °F 43.3 °F 30.1 in SW 10.7 mph 22.8 mph 73% 0 in 0 W/m2
02:31 51.4 °F 43.2 °F 30.1 in SW 9.8 mph 24.4 mph 73% 0 in 0 W/m2
02:36 51.4 °F 43.2 °F 30.1 in SW 15.2 mph 24.4 mph 73% 0 in 0 W/m2
02:41 51.6 °F 43 °F 30.1 in SW 10.7 mph 28.2 mph 72% 0 in 0 W/m2
02:46 51.4 °F 42.4 °F 30.1 in SW 11.4 mph 28.2 mph 71% 0 in 0 W/m2
02:51 51.4 °F 42.6 °F 30.1 in WSW 13 mph 25.1 mph 72% 0 in 0 W/m2
02:56 51.4 °F 42.6 °F 30.1 in West 12.1 mph 25.1 mph 72% 0 in 0 W/m2
03:01 51.6 °F 43 °F 30.1 in WSW 11.4 mph 22.8 mph 72% 0 in 0 W/m2
03:06 51.8 °F 42.6 °F 30.1 in WSW 13.6 mph 20.6 mph 71% 0 in 0 W/m2
03:11 51.8 °F 42.6 °F 30.1 in WSW 15.9 mph 23.5 mph 71% 0 in 0 W/m2
03:16 51.6 °F 43 °F 30.1 in WSW 9.2 mph 23.5 mph 72% 0 in 0 W/m2
03:21 51.6 °F 43.3 °F 30.1 in WSW 12.1 mph 23.5 mph 73% 0 in 0 W/m2
03:26 51.6 °F 43 °F 30.1 in SW 9.8 mph 22.8 mph 72% 0 in 0 W/m2
03:43 51.4 °F 42.4 °F 30.1 in West 12.1 mph 15.2 mph 71% 0 in 0 W/m2
03:48 51.6 °F 43 °F 30.1 in West 8.3 mph 16.8 mph 72% 0 in 0 W/m2
03:53 51.8 °F 42.3 °F 30.1 in WSW 8.3 mph 19.7 mph 70% 0 in 0 W/m2
03:58 51.6 °F 42.4 °F 30.1 in WSW 9.2 mph 19.7 mph 71% 0 in 0 W/m2
04:03 51.6 °F 42.3 °F 30.1 in West 9.8 mph 18.3 mph 70% 0 in 0 W/m2
04:08 51.6 °F 42.4 °F 30.1 in West 15.2 mph 19.7 mph 71% 0 in 0 W/m2
04:13 51.6 °F 42.3 °F 30.1 in WSW 14.5 mph 19.7 mph 70% 0 in 0 W/m2
04:18 51.6 °F 42.3 °F 30.1 in WSW 5.4 mph 19.7 mph 70% 0 in 0 W/m2
04:23 51.6 °F 42.3 °F 30.1 in WSW 6 mph 19.7 mph 70% 0 in 0 W/m2
04:28 51.8 °F 42.3 °F 30.1 in WSW 9.8 mph 19.7 mph 70% 0 in 0 W/m2
04:33 51.8 °F 42.1 °F 30.1 in SW 12.1 mph 19 mph 69% 0 in 0 W/m2
04:38 51.8 °F 42.1 °F 30.1 in WSW 8.3 mph 19.7 mph 69% 0 in 0 W/m2
04:43 51.8 °F 42.1 °F 30.1 in WSW 6.9 mph 19.7 mph 69% 0 in 0 W/m2
04:48 51.8 °F 42.3 °F 30.1 in SW 13 mph 19.7 mph 70% 0 in 0 W/m2
04:53 51.8 °F 42.3 °F 30.1 in WSW 9.2 mph 19.7 mph 70% 0 in 0 W/m2
04:58 51.8 °F 42.6 °F 30.1 in WSW 10.7 mph 17.4 mph 71% 0 in 0 W/m2
05:04 51.8 °F 42.1 °F 30.1 in SW 9.8 mph 18.3 mph 69% 0 in 0 W/m2
05:09 52 °F 42.4 °F 30.1 in SW 11.4 mph 19 mph 70% 0 in 0 W/m2
05:14 52.2 °F 43.2 °F 30.1 in WSW 13 mph 20.6 mph 71% 0 in 0 W/m2
05:19 52.2 °F 43.2 °F 30.1 in SW 13 mph 20.6 mph 71% 0 in 0 W/m2
05:24 52.2 °F 43.2 °F 30.1 in SW 13.6 mph 20.6 mph 71% 0 in 0 W/m2
05:29 52.2 °F 43.3 °F 30.1 in WSW 14.5 mph 25.1 mph 72% 0 in 0 W/m2
05:34 52 °F 43.2 °F 30.1 in WSW 9.8 mph 25.1 mph 72% 0 in 0 W/m2
05:39 51.6 °F 43.5 °F 30.1 in WSW 11.4 mph 20.6 mph 74% 0 in 0 W/m2
05:44 51.8 °F 43.2 °F 30.1 in SW 12.1 mph 21.3 mph 72% 0 in 0 W/m2
05:49 52 °F 43.2 °F 30.1 in SW 11.4 mph 22.8 mph 72% 0 in 0 W/m2
05:54 52.2 °F 43.3 °F 30.1 in SW 10.7 mph 22.8 mph 72% 0 in 0 W/m2
05:59 52.2 °F 43.2 °F 30.1 in SW 9.2 mph 19 mph 71% 0 in 0 W/m2
06:04 52.2 °F 43.2 °F 30.1 in SW 11.4 mph 19 mph 71% 0 in 0 W/m2
06:09 52.2 °F 43.2 °F 30.1 in WSW 9.8 mph 18.3 mph 71% 0 in 0 W/m2
06:13 52.2 °F 43.2 °F 30.1 in WSW 12.1 mph 17.4 mph 71% 0 in 0 W/m2
06:18 52.2 °F 42.6 °F 30.1 in WSW 9.8 mph 24.4 mph 70% 0 in 0 W/m2
06:23 52.3 °F 43.2 °F 30.1 in WSW 10.7 mph 24.4 mph 71% 0 in 0 W/m2
06:28 52.3 °F 43.2 °F 30.1 in WSW 11.4 mph 22.8 mph 71% 0 in 0 W/m2
06:33 52.3 °F 43 °F 30.1 in WSW 13 mph 22.8 mph 70% 0 in 0 W/m2
06:38 52.3 °F 43 °F 30.1 in WSW 13 mph 22.1 mph 70% 0 in 0 W/m2
06:43 52.2 °F 42.3 °F 30.1 in WSW 13.6 mph 22.1 mph 69% 0 in 0 W/m2
06:48 52.3 °F 42.1 °F 30.1 in SW 11.4 mph 24.4 mph 68% 0 in 0 W/m2
06:53 52.2 °F 41.5 °F 30.1 in SW 13.6 mph 27.3 mph 67% 0 in 0 W/m2
06:58 52.2 °F 41.9 °F 30.1 in SW 16.8 mph 27.3 mph 68% 0 in 0 W/m2
07:03 52.2 °F 41.5 °F 30.1 in WSW 14.5 mph 26.6 mph 67% 0 in 0 W/m2
07:09 52.2 °F 41.9 °F 30.1 in SW 19.7 mph 26.6 mph 68% 0 in 0 W/m2
07:14 52.2 °F 41.5 °F 30.1 in SW 11.4 mph 26.6 mph 67% 0 in 0 W/m2
07:19 52 °F 41.4 °F 30.1 in SW 15.2 mph 25.1 mph 67% 0 in 0 W/m2
07:24 52 °F 41.4 °F 30.1 in SW 13 mph 24.4 mph 67% 0 in 1 W/m2
07:29 51.8 °F 41.5 °F 30.1 in SW 15.9 mph 28.9 mph 68% 0 in 2 W/m2
07:34 51.8 °F 41.2 °F 30.1 in SW 10.7 mph 28.9 mph 67% 0 in 4 W/m2
07:39 51.8 °F 41.5 °F 30.1 in SW 11.4 mph 28.9 mph 68% 0 in 4 W/m2
07:44 51.8 °F 41.5 °F 30.1 in SW 10.7 mph 23.5 mph 68% 0 in 7 W/m2
07:49 51.8 °F 40.8 °F 30.1 in SW 13.6 mph 24.4 mph 66% 0 in 11 W/m2
07:54 51.8 °F 41.2 °F 30.1 in SW 13.6 mph 25.9 mph 67% 0 in 13 W/m2
07:59 51.8 °F 40.5 °F 30.1 in SW 12.1 mph 25.9 mph 65% 0 in 15 W/m2
08:04 51.8 °F 41.2 °F 30.1 in SW 14.5 mph 23.5 mph 67% 0 in 18 W/m2
08:09 52 °F 41 °F 30.1 in SW 13 mph 23.5 mph 66% 0 in 20 W/m2
08:14 52 °F 41 °F 30.1 in SW 12.1 mph 25.1 mph 66% 0 in 20 W/m2
08:19 51.8 °F 41.2 °F 30.1 in SW 14.5 mph 25.1 mph 67% 0 in 25 W/m2
08:24 51.8 °F 40.5 °F 30.2 in SW 13.6 mph 25.1 mph 65% 0 in 30 W/m2
08:29 51.6 °F 40.6 °F 30.1 in WSW 11.4 mph 25.1 mph 66% 0 in 31 W/m2
08:34 51.6 °F 41.4 °F 30.2 in WSW 13.6 mph 23.5 mph 68% 0 in 46 W/m2
08:39 51.6 °F 41 °F 30.1 in West 16.8 mph 25.9 mph 67% 0 in 79 W/m2
08:44 52 °F 40.6 °F 30.2 in WSW 15.9 mph 25.9 mph 65% 0 in 65 W/m2
08:49 52 °F 40.6 °F 30.1 in SW 15.2 mph 27.3 mph 65% 0 in 63 W/m2
08:54 52 °F 41 °F 30.2 in WSW 10.7 mph 27.3 mph 66% 0 in 54 W/m2
08:59 52 °F 41 °F 30.2 in WSW 12.1 mph 26.6 mph 66% 0 in 50 W/m2
09:04 52 °F 41 °F 30.2 in WSW 17.4 mph 25.1 mph 66% 0 in 58 W/m2
09:09 52 °F 41 °F 30.2 in WSW 11.4 mph 28.9 mph 66% 0 in 60 W/m2
09:14 52 °F 41 °F 30.2 in WSW 17.4 mph 30.4 mph 66% 0 in 57 W/m2
09:19 51.4 °F 41.5 °F 30.2 in WSW 19.7 mph 30.4 mph 69% 0 in 73 W/m2
09:24 51.4 °F 42.1 °F 30.2 in WSW 17.4 mph 26.6 mph 70% 0 in 65 W/m2
09:29 51.4 °F 41.2 °F 30.2 in WSW 13.6 mph 25.9 mph 68% 0 in 77 W/m2
09:34 51.6 °F 41.4 °F 30.2 in WSW 13.6 mph 25.1 mph 68% 0 in 90 W/m2
09:39 52 °F 41 °F 30.2 in WSW 16.8 mph 25.1 mph 66% 0 in 108 W/m2
09:44 52.2 °F 41.5 °F 30.2 in WSW 9.2 mph 25.1 mph 67% 0 in 122 W/m2
09:49 52.2 °F 41.5 °F 30.2 in WSW 12.1 mph 25.1 mph 67% 0 in 92 W/m2
09:54 52 °F 41.7 °F 30.2 in SW 12.1 mph 22.1 mph 68% 0 in 85 W/m2
09:59 52 °F 41 °F 30.2 in SW 14.5 mph 26.6 mph 66% 0 in 114 W/m2
10:04 52.2 °F 41.5 °F 30.2 in SW 9.2 mph 26.6 mph 67% 0 in 96 W/m2
10:09 52 °F 41 °F 30.2 in WSW 18.3 mph 23.5 mph 66% 0 in 83 W/m2
10:14 52 °F 41 °F 30.2 in SW 12.1 mph 22.8 mph 66% 0 in 71 W/m2
10:19 52 °F 41.4 °F 30.2 in WSW 16.8 mph 23.5 mph 67% 0 in 113 W/m2
10:24 51.8 °F 40.8 °F 30.2 in WSW 11.4 mph 23.5 mph 66% 0 in 79 W/m2
10:29 52 °F 41.4 °F 30.2 in SW 13 mph 23.5 mph 67% 0 in 76 W/m2
10:34 52 °F 41.7 °F 30.2 in SW 12.1 mph 28.2 mph 68% 0 in 71 W/m2
10:39 52 °F 41.7 °F 30.2 in WSW 19 mph 28.2 mph 68% 0 in 94 W/m2
10:44 52 °F 41.7 °F 30.2 in WSW 11.4 mph 23.5 mph 68% 0 in 79 W/m2
10:49 52 °F 41.7 °F 30.2 in SW 15.2 mph 23.5 mph 68% 0 in 118 W/m2
10:54 52.3 °F 43 °F 30.2 in SW 13 mph 22.8 mph 70% 0 in 133 W/m2
11:00 52.5 °F 43 °F 30.2 in SW 15.2 mph 25.9 mph 70% 0 in 104 W/m2
11:05 52.3 °F 43 °F 30.2 in SW 11.4 mph 25.9 mph 70% 0 in 80 W/m2
11:10 52.5 °F 43.3 °F 30.2 in SW 16.8 mph 25.1 mph 71% 0 in 142 W/m2
11:15 53.2 °F 43.7 °F 30.2 in SW 15.9 mph 26.6 mph 70% 0 in 195 W/m2
11:20 53.1 °F 43.5 °F 30.2 in SW 11.4 mph 26.6 mph 70% 0 in 113 W/m2
11:25 52.9 °F 43.3 °F 30.2 in SSW 15.9 mph 23.5 mph 70% 0 in 187 W/m2
11:30 53.1 °F 42.8 °F 30.2 in SW 14.5 mph 20.6 mph 68% 0 in 121 W/m2
11:35 52.9 °F 42.3 °F 30.2 in SW 12.1 mph 22.8 mph 67% 0 in 98 W/m2
11:40 52.7 °F 42.1 °F 30.2 in SW 13 mph 22.8 mph 67% 0 in 89 W/m2
11:45 52.9 °F 42.3 °F 30.2 in SW 13 mph 22.1 mph 67% 0 in 138 W/m2
11:50 53.1 °F 42.4 °F 30.2 in SW 10.7 mph 22.1 mph 67% 0 in 108 W/m2
11:55 53.2 °F 42.6 °F 30.2 in WSW 11.4 mph 21.3 mph 67% 0 in 177 W/m2
12:00 53.2 °F 41.7 °F 30.2 in SW 15.2 mph 22.1 mph 65% 0 in 136 W/m2
12:05 52.9 °F 42.3 °F 30.2 in SW 11.4 mph 22.1 mph 67% 0 in 83 W/m2
12:10 53.1 °F 42.4 °F 30.2 in SSW 13.6 mph 22.1 mph 67% 0 in 104 W/m2
12:15 53.8 °F 41.9 °F 30.2 in SW 12.1 mph 24.4 mph 64% 0 in 96 W/m2
12:20 53.4 °F 42.6 °F 30.2 in WSW 9.8 mph 24.4 mph 67% 0 in 167 W/m2
12:25 53.6 °F 41.7 °F 30.2 in SW 19.7 mph 23.5 mph 64% 0 in 136 W/m2
12:30 54.1 °F 42.3 °F 30.2 in SW 9.8 mph 23.5 mph 64% 0 in 166 W/m2
12:35 54.1 °F 41.7 °F 30.2 in WSW 16.8 mph 23.5 mph 63% 0 in 105 W/m2
12:40 53.4 °F 42.1 °F 30.2 in WSW 10.7 mph 22.8 mph 65% 0 in 114 W/m2
12:45 53.4 °F 42.1 °F 30.2 in WSW 9.8 mph 20.6 mph 65% 0 in 118 W/m2
12:50 53.8 °F 42.3 °F 30.2 in WSW 11.4 mph 23.5 mph 65% 0 in 148 W/m2
12:55 53.8 °F 42.3 °F 30.2 in WSW 9.2 mph 23.5 mph 65% 0 in 152 W/m2
13:00 53.6 °F 42.1 °F 30.1 in WSW 9.2 mph 19 mph 65% 0 in 110 W/m2
13:05 53.6 °F 42.1 °F 30.1 in West 13.6 mph 18.3 mph 65% 0 in 139 W/m2
13:10 53.6 °F 42.1 °F 30.1 in WSW 13.6 mph 18.3 mph 65% 0 in 128 W/m2
13:15 53.6 °F 42.1 °F 30.1 in WSW 12.1 mph 19.7 mph 65% 0 in 142 W/m2
13:20 54.3 °F 42.8 °F 30.1 in WSW 12.1 mph 19.7 mph 65% 0 in 158 W/m2
13:25 55.2 °F 43.7 °F 30.1 in WSW 8.3 mph 16.8 mph 65% 0 in 160 W/m2
13:30 54.5 °F 42.6 °F 30.1 in WSW 9.8 mph 19.7 mph 64% 0 in 115 W/m2
13:35 54.1 °F 42.6 °F 30.1 in WSW 8.3 mph 19.7 mph 65% 0 in 131 W/m2
13:37 54 °F 42.4 °F 30.1 in WSW 9.2 mph 17.4 mph 65% 0 in 128 W/m2
13:42 54.1 °F 43 °F 30.1 in SW 12.1 mph 19.7 mph 66% 0 in 132 W/m2
13:47 53.8 °F 42.3 °F 30.1 in SW 9.2 mph 19.7 mph 65% 0 in 98 W/m2
13:52 53.6 °F 41.7 °F 30.1 in SW 7.6 mph 22.1 mph 64% 0 in 103 W/m2
13:57 53.8 °F 42.3 °F 30.1 in SW 9.2 mph 22.1 mph 65% 0 in 128 W/m2
14:02 54 °F 42.4 °F 30.1 in WSW 9.2 mph 19 mph 65% 0 in 138 W/m2
14:07 54.1 °F 43 °F 30.1 in WSW 9.2 mph 16.8 mph 66% 0 in 108 W/m2
14:12 55 °F 43.5 °F 30.1 in SW 7.6 mph 19.7 mph 65% 0 in 112 W/m2
14:17 54.5 °F 42.6 °F 30.1 in SW 10.7 mph 19.7 mph 64% 0 in 77 W/m2
14:22 54 °F 42.1 °F 30.1 in SW 9.8 mph 18.3 mph 64% 0 in 62 W/m2
14:27 53.6 °F 42.1 °F 30.1 in SW 8.3 mph 18.3 mph 65% 0 in 93 W/m2
14:32 53.8 °F 42.6 °F 30.1 in SW 13 mph 15.9 mph 66% 0 in 144 W/m2
14:37 54.9 °F 43 °F 30.1 in WSW 10.7 mph 15.9 mph 64% 0 in 94 W/m2
14:42 54.5 °F 42.6 °F 30.1 in WSW 8.3 mph 15.9 mph 64% 0 in 99 W/m2
14:47 54.3 °F 42.4 °F 30.1 in WSW 6.9 mph 17.4 mph 64% 0 in 217 W/m2
14:52 54.3 °F 42.8 °F 30.1 in West 6.9 mph 18.3 mph 65% 0 in 94 W/m2
14:57 55.2 °F 43 °F 30.1 in WSW 8.3 mph 18.3 mph 63% 0 in 114 W/m2
15:02 55.6 °F 43.5 °F 30.1 in SW 11.4 mph 15.2 mph 64% 0 in 90 W/m2
15:07 56.1 °F 44.4 °F 30.1 in SW 8.3 mph 15.2 mph 65% 0 in 171 W/m2
15:12 55.9 °F 43.9 °F 30.1 in SW 10.7 mph 14.5 mph 64% 0 in 65 W/m2
15:17 55 °F 42.6 °F 30.1 in SW 6 mph 19 mph 63% 0 in 80 W/m2
15:22 54.5 °F 42.3 °F 30.1 in WSW 13.6 mph 19 mph 63% 0 in 85 W/m2
15:27 55 °F 43.5 °F 30.1 in WSW 10.7 mph 19.7 mph 65% 0 in 107 W/m2
15:33 55 °F 42.6 °F 30.1 in WSW 15.2 mph 19.7 mph 63% 0 in 141 W/m2
15:38 55.4 °F 43.3 °F 30.1 in WSW 7.6 mph 17.4 mph 64% 0 in 132 W/m2
15:43 55.2 °F 43 °F 30.1 in WSW 10.7 mph 19 mph 63% 0 in 114 W/m2
15:48 55.4 °F 43.9 °F 30.1 in WSW 11.4 mph 19 mph 65% 0 in 101 W/m2
15:53 55.2 °F 43 °F 30.1 in SW 12.1 mph 19 mph 63% 0 in 89 W/m2
15:58 55.2 °F 43 °F 30.1 in SW 8.3 mph 19 mph 63% 0 in 60 W/m2
16:03 55.2 °F 43.3 °F 30.1 in SW 8.3 mph 16.8 mph 64% 0 in 80 W/m2
16:08 55.2 °F 43 °F 30.1 in SW 9.2 mph 20.6 mph 63% 0 in 56 W/m2
16:13 55 °F 42.3 °F 30.1 in SW 12.1 mph 20.6 mph 62% 0 in 47 W/m2
16:18 55 °F 43.2 °F 30.1 in WSW 10.7 mph 19 mph 64% 0 in 36 W/m2
16:23 54.7 °F 42.3 °F 30.1 in WSW 9.2 mph 19 mph 63% 0 in 31 W/m2
16:28 54.5 °F 42.6 °F 30.1 in WSW 9.2 mph 19 mph 64% 0 in 25 W/m2
16:33 54.5 °F 42.6 °F 30.1 in WSW 6.9 mph 18.3 mph 64% 0 in 20 W/m2
16:38 54.3 °F 42.4 °F 30.1 in SW 8.3 mph 15.9 mph 64% 0 in 15 W/m2
16:43 54.1 °F 42.6 °F 30.1 in SW 12.1 mph 18.3 mph 65% 0 in 12 W/m2
16:48 54 °F 42.4 °F 30.1 in SW 7.6 mph 19 mph 65% 0 in 7 W/m2
16:50 53.8 °F 42.3 °F 30.1 in SW 13.6 mph 19 mph 65% 0 in 5 W/m2
16:55 54 °F 42.1 °F 30.1 in SW 9.2 mph 19.7 mph 64% 0 in 4 W/m2
17:00 53.8 °F 41.9 °F 30.1 in WSW 12.1 mph 22.1 mph 64% 0 in 0 W/m2
17:05 54.1 °F 41.4 °F 30.1 in SW 14.5 mph 23.5 mph 62% 0 in 0 W/m2
17:10 54.1 °F 41.4 °F 30.1 in SW 11.4 mph 23.5 mph 62% 0 in 0 W/m2
17:15 54.1 °F 41.7 °F 30.1 in SW 12.1 mph 23.5 mph 63% 0 in 0 W/m2
17:20 54.1 °F 41.7 °F 30.1 in SW 10.7 mph 17.4 mph 63% 0 in 0 W/m2
17:25 54.1 °F 41.7 °F 30.1 in SW 8.3 mph 18.3 mph 63% 0 in 0 W/m2
17:30 54.1 °F 41.7 °F 30.1 in SW 8.3 mph 19 mph 63% 0 in 0 W/m2
17:35 54.1 °F 42.6 °F 30.1 in SW 8.3 mph 19 mph 65% 0 in 0 W/m2
17:40 54.3 °F 42.8 °F 30.1 in SW 9.2 mph 17.4 mph 65% 0 in 0 W/m2
17:45 54.3 °F 42.1 °F 30.1 in SW 9.8 mph 20.6 mph 63% 0 in 0 W/m2
17:50 54.7 °F 42.8 °F 30.1 in WSW 14.5 mph 21.3 mph 64% 0 in 0 W/m2
17:55 54.7 °F 42.8 °F 30.1 in WSW 16.8 mph 21.3 mph 64% 0 in 0 W/m2
18:00 54.7 °F 42.8 °F 30.1 in WSW 15.2 mph 25.1 mph 64% 0 in 0 W/m2
18:06 54.7 °F 42.8 °F 30.1 in WSW 7.6 mph 25.1 mph 64% 0 in 0 W/m2
18:11 54.5 °F 42.6 °F 30.1 in WSW 13 mph 22.8 mph 64% 0 in 0 W/m2
18:16 54.5 °F 43 °F 30.1 in WSW 15.2 mph 25.1 mph 65% 0 in 0 W/m2
18:21 54.7 °F 42.3 °F 30.1 in SW 13.6 mph 25.1 mph 63% 0 in 0 W/m2
18:27 54.7 °F 42.3 °F 30.1 in SSW 19 mph 25.1 mph 63% 0 in 0 W/m2
18:32 54.7 °F 42.8 °F 30.1 in SSW 15.2 mph 25.1 mph 64% 0 in 0 W/m2
18:37 54.7 °F 42.8 °F 30.1 in SW 22.8 mph 27.3 mph 64% 0 in 0 W/m2
18:42 53.6 °F 43 °F 30.1 in SW 12.1 mph 29.8 mph 67% 0 in 0 W/m2
18:47 53.1 °F 44.2 °F 30.1 in SW 14.5 mph 29.8 mph 72% 0 in 0 W/m2
18:52 52.3 °F 44.8 °F 30.1 in SW 15.2 mph 28.9 mph 75% 0 in 0 W/m2
18:57 52.2 °F 44.8 °F 30.2 in SSW 17.4 mph 28.9 mph 76% 0 in 0 W/m2
19:02 51.8 °F 44.8 °F 30.1 in SSW 9.8 mph 28.2 mph 77% 0 in 0 W/m2
19:07 52.3 °F 45.3 °F 30.1 in SSW 13 mph 23.5 mph 77% 0 in 0 W/m2
19:12 53.1 °F 44.6 °F 30.2 in SW 14.5 mph 23.5 mph 73% 0 in 0 W/m2
19:17 52.3 °F 44.2 °F 30.2 in SSW 15.9 mph 24.4 mph 74% 0.01 in 0 W/m2
19:22 52 °F 44.2 °F 30.2 in SW 10.7 mph 24.4 mph 75% 0.01 in 0 W/m2
19:27 51.8 °F 44.4 °F 30.2 in SW 17.4 mph 28.2 mph 76% 0.01 in 0 W/m2
19:32 52 °F 44.8 °F 30.2 in SW 13.6 mph 28.2 mph 76% 0.01 in 0 W/m2
19:37 52.5 °F 44.4 °F 30.2 in SW 14.5 mph 22.8 mph 74% 0.01 in 0 W/m2
19:42 52 °F 45.3 °F 30.2 in SSW 15.2 mph 25.1 mph 78% 0.02 in 0 W/m2
19:47 51.4 °F 46 °F 30.2 in SSW 14.5 mph 25.1 mph 82% 0.02 in 0 W/m2
19:52 52.2 °F 45.9 °F 30.2 in SSW 20.6 mph 27.3 mph 79% 0.02 in 0 W/m2
19:57 51.1 °F 46 °F 30.2 in SSW 8.3 mph 27.3 mph 83% 0.02 in 0 W/m2
20:02 50.7 °F 46 °F 30.2 in SW 9.8 mph 25.9 mph 84% 0.02 in 0 W/m2
20:07 51.1 °F 46.4 °F 30.2 in SW 11.4 mph 18.3 mph 84% 0.02 in 0 W/m2
20:12 51.6 °F 46.9 °F 30.2 in SW 16.8 mph 22.1 mph 84% 0.02 in 0 W/m2
20:22 52.2 °F 45.1 °F 30.2 in SW 15.9 mph 28.2 mph 77% 0.01 in 0 W/m2
20:27 52.2 °F 45.9 °F 30.2 in SW 12.1 mph 28.2 mph 79% 0.01 in 0 W/m2
20:32 51.8 °F 45.9 °F 30.2 in SW 8.3 mph 22.8 mph 80% 0.01 in 0 W/m2
20:37 51.8 °F 46.6 °F 30.2 in SW 8.3 mph 19 mph 82% 0.01 in 0 W/m2
20:47 52 °F 45.3 °F 30.2 in WSW 19 mph 25.9 mph 78% 0 in 0 W/m2
20:52 52 °F 45.3 °F 30.2 in WSW 14.5 mph 25.9 mph 78% 0 in 0 W/m2
20:57 52 °F 45 °F 30.2 in SW 10.7 mph 24.4 mph 77% 0 in 0 W/m2
21:02 52 °F 45 °F 30.2 in WSW 15.2 mph 24.4 mph 77% 0 in 0 W/m2
21:20 51.6 °F 46 °F 30.2 in SW 13.6 mph 19.7 mph 81% 0.01 in 0 W/m2
21:26 50.9 °F 46.2 °F 30.2 in SSW 13 mph 21.3 mph 84% 0.06 in 0 W/m2
21:31 50.4 °F 46.6 °F 30.2 in SSW 13.6 mph 25.9 mph 87% 0.09 in 0 W/m2
21:36 50 °F 47.1 °F 30.2 in SSW 7.6 mph 25.9 mph 90% 0.14 in 0 W/m2
21:41 50 °F 47.5 °F 30.2 in SSW 13 mph 19.7 mph 91% 0.17 in 0 W/m2
21:46 50 °F 47.8 °F 30.2 in SW 9.8 mph 19.7 mph 92% 0.21 in 0 W/m2
21:51 50.2 °F 48.2 °F 30.2 in SSW 9.2 mph 18.3 mph 93% 0.25 in 0 W/m2
21:56 50 °F 48.4 °F 30.2 in South 11.4 mph 18.3 mph 94% 0.3 in 0 W/m2
22:01 49.8 °F 48.4 °F 30.2 in South 9.2 mph 21.3 mph 95% 0.33 in 0 W/m2
22:06 49.8 °F 48.4 °F 30.2 in SSW 11.4 mph 21.3 mph 95% 0.35 in 0 W/m2
22:11 49.8 °F 48.4 °F 30.2 in SW 13 mph 19.7 mph 95% 0.37 in 0 W/m2
22:16 49.6 °F 48.4 °F 30.2 in SW 13 mph 21.3 mph 95% 0.35 in 0 W/m2
22:21 49.8 °F 48.4 °F 30.2 in SSW 9.2 mph 21.3 mph 95% 0.34 in 0 W/m2
22:26 49.8 °F 48.4 °F 30.2 in SW 8.3 mph 18.3 mph 95% 0.31 in 0 W/m2
22:31 49.8 °F 48.4 °F 30.2 in SW 9.2 mph 18.3 mph 95% 0.26 in 0 W/m2
22:36 49.8 °F 48.4 °F 30.2 in SW 9.8 mph 18.3 mph 95% 0.22 in 0 W/m2
22:41 49.8 °F 48.4 °F 30.2 in SW 9.8 mph 15.2 mph 95% 0.21 in 0 W/m2
22:46 50 °F 48.4 °F 30.2 in SSW 12.1 mph 17.4 mph 94% 0.18 in 0 W/m2
22:51 49.8 °F 48.4 °F 30.2 in SSW 13.6 mph 22.1 mph 95% 0.15 in 0 W/m2
22:56 49.8 °F 48.4 °F 30.2 in SSW 11.4 mph 22.1 mph 95% 0.11 in 0 W/m2
23:01 49.8 °F 48.2 °F 30.2 in SSW 12.1 mph 21.3 mph 94% 0.07 in 0 W/m2
23:06 49.6 °F 48 °F 30.2 in SW 8.3 mph 21.3 mph 94% 0.06 in 0 W/m2
23:11 49.6 °F 48.4 °F 30.2 in SW 9.8 mph 18.3 mph 95% 0.05 in 0 W/m2
23:16 49.6 °F 48.4 °F 30.2 in SW 8.3 mph 19.7 mph 95% 0.06 in 0 W/m2
23:21 49.5 °F 48 °F 30.2 in SW 13 mph 19.7 mph 95% 0.06 in 0 W/m2
23:26 49.6 °F 48.4 °F 30.2 in SW 8.3 mph 19 mph 95% 0.07 in 0 W/m2
23:31 49.6 °F 48.6 °F 30.2 in SW 10.7 mph 19 mph 96% 0.07 in 0 W/m2
23:36 49.6 °F 48.6 °F 30.2 in SW 12.1 mph 17.4 mph 96% 0.07 in 0 W/m2
23:41 49.5 °F 48.4 °F 30.2 in SW 10.7 mph 17.4 mph 96% 0.05 in 0 W/m2
23:46 49.5 °F 48.4 °F 30.2 in SW 9.2 mph 18.3 mph 96% 0.06 in 0 W/m2
23:51 49.5 °F 48.4 °F 30.2 in SW 11.4 mph 18.3 mph 96% 0.05 in 0 W/m2
23:56 49.5 °F 48.4 °F 30.2 in SW 6.9 mph 18.3 mph 96% 0.05 in 0 W/m2
Northern Hawkes Bay. New Zealand Historic Data
Compliments of Weather Underground - 2.25 mb